Track MERIDIAN 2 now! 10-day predictions MERIDIAN 2 is classified as:
1 35008U 09029A 21100.49690252 .02388318 54382-5 20180-3 0 9991 2 35008 63.0031 152.8469 5153337 250.4341 252.5891 5.63128196 97562